Flag for U.S.A. Weather past 2 weeks in Portsmouth, Virginia, U.S.A.

Now
76 °F

Passing clouds.


Feels Like: 76 °F
Forecast: 72 / 89 °F
Wind: 3 mph from South

Location: Norfolk Naval Air Station

Current Time: Aug 21, 2014 at 6:23:12 AM

Latest Report: Aug 21, 2014 at 5:59 AM


Visibility: 10 mi

Pressure: 30.01 "Hg

Humidity: 88%

Dew point: 72 °F

Location of PortsmouthLocation

Historic Weather in Portsmouth — Graph

°F

Portsmouth temperature yesterday

Maximum temperature yesterday: 83 °F (at 12:59 PM)
Minimum temperature yesterday: 76 °F (at 1:59 AM)
Average temperature yesterday: 79 °F

Past Weeks' High & Low Weather Summary

 TemperatureHumidityPressure
High87 °F (Aug 6, 12:59 PM)94% (Aug 19, 4:59 AM)30.15 "Hg (Aug 19, 4:59 AM)
Low69 °F (Aug 11, 3:59 AM)29% (Aug 14, 1:59 PM)29.76 "Hg (Aug 13, 2:59 AM)
Average78 °F70%29.97 "Hg
* Reported Aug 6 4:59 AM — Aug 21 4:59 AM, Portsmouth, Weather by CustomWeather, © 2014

Note: Actual official high and low records may vary slightly from our data, if they occured in-between our weather recording intervals... More about our weather records

Advertising

Portsmouth weather history for previous 24 hours

 ConditionsComfort  
Time TempWeatherWind HumidityBarometerVisibility
4:59 AM
Aug 21
76 °FPassing clouds.3 mph88%30.00 "Hg10 mi
3:59 AM75 °FPartly cloudy.5 mph88%29.99 "Hg10 mi
2:59 AM75 °FPassing clouds.5 mph88%29.99 "Hg10 mi
1:59 AM76 °FPassing clouds.6 mph82%30.01 "Hg10 mi
12:59 AM75 °FPassing clouds.5 mph85%30.02 "Hg10 mi
11:59 PM
Aug 20
76 °FPassing clouds.3 mph80%30.04 "Hg10 mi
10:59 PM76 °FPassing clouds.7 mph80%30.01 "Hg10 mi
9:59 PM76 °FPassing clouds.6 mph80%30.02 "Hg10 mi
8:59 PM77 °FPassing clouds.7 mph77%30.01 "Hg10 mi
7:59 PM78 °FScattered clouds.7 mph74%30.00 "Hg10 mi
6:59 PM79 °FScattered clouds.12 mph72%29.99 "Hg10 mi
5:59 PM81 °FScattered clouds.13 mph69%29.98 "Hg10 mi
4:59 PM81 °FScattered clouds.9 mph67%29.99 "Hg10 mi
3:59 PM83 °FScattered clouds.12 mph61%29.97 "Hg10 mi
2:59 PM82 °FScattered clouds.12 mph63%29.98 "Hg10 mi
1:59 PM83 °FScattered clouds.10 mph59%29.99 "Hg10 mi
12:59 PM83 °FScattered clouds.8 mph63%30.00 "Hg10 mi
11:59 AM82 °FScattered clouds.10 mph63%30.01 "Hg10 mi
10:59 AM81 °FScattered clouds.6 mph65%30.00 "Hg10 mi
9:59 AM79 °FScattered clouds.7 mph72%29.99 "Hg10 mi
8:59 AM79 °FScattered clouds.9 mph72%29.98 "Hg10 mi
7:59 AM77 °FPartly sunny.9 mph77%29.96 "Hg10 mi
6:59 AM76 °FPassing clouds.9 mph80%29.94 "Hg10 mi
Weather by CustomWeather, © 2014

See weather overviewHow to use our weather pages